Time,TemperatureF,DewpointF,PressureIn,WindDirection,WindDirectionDegrees,WindSpeedMPH,WindSpeedGustMPH,Humidity,HourlyPrecipIn,Conditions,Clouds,dailyrainin,SoftwareType,DateUTC
2013-02-21 00:00:00,4.0,0.0,-100.00,North,5,1.0,6.0,83,-99.99,,,-99.99,,2013-02-21 06:00:00,
2013-02-21 01:32:00,-1.0,-3.0,-100.00,NNE,25,0.0,1.0,87,-99.99,,,-99.99,,2013-02-21 07:32:00,
2013-02-21 01:42:00,-1.0,-3.0,-100.00,NNE,25,0.0,1.0,87,-99.99,,,-99.99,,2013-02-21 07:42:00,
2013-02-21 01:52:00,-1.0,-3.0,-100.00,NNE,25,0.0,1.0,87,-99.99,,,-99.99,,2013-02-21 07:52:00,
2013-02-21 02:01:00,-1.0,-3.0,-100.00,NNE,25,0.0,1.0,87,-99.99,,,-99.99,,2013-02-21 08:01:00,
2013-02-21 02:11:00,-1.0,-3.0,-100.00,NNE,25,0.0,1.0,87,-99.99,,,-99.99,,2013-02-21 08:11:00,
2013-02-21 02:32:00,-5.0,-8.0,-100.00,NNE,25,0.0,1.0,87,-99.99,,,-99.99,,2013-02-21 08:32:00,
2013-02-21 02:42:00,-5.0,-8.0,-100.00,NNE,25,0.0,1.0,87,-99.99,,,-99.99,,2013-02-21 08:42:00,
2013-02-21 02:52:00,-5.0,-8.0,-100.00,NNE,25,0.0,1.0,87,-99.99,,,-99.99,,2013-02-21 08:52:00,
2013-02-21 03:01:00,-5.0,-8.0,-100.00,NNE,25,0.0,1.0,87,-99.99,,,-99.99,,2013-02-21 09:01:00,
2013-02-21 03:11:00,-5.0,-8.0,-100.00,NNE,25,0.0,1.0,87,-99.99,,,-99.99,,2013-02-21 09:11:00,
2013-02-21 03:32:00,-5.0,-8.0,-100.00,NNE,20,1.0,4.0,87,-99.99,,,-99.99,,2013-02-21 09:32:00,
2013-02-21 03:42:00,-5.0,-8.0,-100.00,NNE,20,1.0,4.0,87,-99.99,,,-99.99,,2013-02-21 09:42:00,
2013-02-21 03:52:00,-5.0,-8.0,-100.00,NNE,20,1.0,4.0,87,-99.99,,,-99.99,,2013-02-21 09:52:00,
2013-02-21 04:01:00,-5.0,-8.0,-100.00,NNE,20,1.0,4.0,87,-99.99,,,-99.99,,2013-02-21 10:01:00,
2013-02-21 04:11:00,2.0,-1.0,-100.00,NNE,20,2.0,6.0,89,-99.99,,,-99.99,,2013-02-21 10:11:00,
2013-02-21 04:31:00,2.0,-1.0,-100.00,NNE,20,2.0,6.0,89,-99.99,,,-99.99,,2013-02-21 10:31:00,
2013-02-21 04:41:00,2.0,-1.0,-100.00,NNE,20,2.0,6.0,89,-99.99,,,-99.99,,2013-02-21 10:41:00,
2013-02-21 04:51:00,2.0,-1.0,-100.00,NNE,20,2.0,6.0,89,-99.99,,,-99.99,,2013-02-21 10:51:00,
2013-02-21 05:01:00,2.0,-1.0,-100.00,NNE,20,2.0,6.0,89,-99.99,,,-99.99,,2013-02-21 11:01:00,
2013-02-21 05:31:00,2.0,0.0,-100.00,NE,35,3.0,5.0,89,-99.99,,,-99.99,,2013-02-21 11:31:00,
2013-02-21 05:41:00,2.0,0.0,-100.00,NE,35,3.0,5.0,89,-99.99,,,-99.99,,2013-02-21 11:41:00,
2013-02-21 05:52:00,2.0,0.0,-100.00,NE,35,3.0,5.0,89,-99.99,,,-99.99,,2013-02-21 11:52:00,
2013-02-21 06:01:00,2.0,0.0,-100.00,NE,35,3.0,5.0,89,-99.99,,,-99.99,,2013-02-21 12:01:00,
2013-02-21 06:11:00,2.0,0.0,-100.00,NE,35,3.0,5.0,89,-99.99,,,-99.99,,2013-02-21 12:11:00,
2013-02-21 06:32:00,3.0,0.0,-100.00,NNE,30,4.0,7.0,89,-99.99,,,-99.99,,2013-02-21 12:32:00,
2013-02-21 06:43:00,3.0,0.0,-100.00,NNE,30,4.0,7.0,89,-99.99,,,-99.99,,2013-02-21 12:43:00,
2013-02-21 06:53:00,3.0,0.0,-100.00,NNE,30,4.0,7.0,89,-99.99,,,-99.99,,2013-02-21 12:53:00,
2013-02-21 07:02:00,3.0,0.0,-100.00,NNE,30,4.0,7.0,89,-99.99,,,-99.99,,2013-02-21 13:02:00,
2013-02-21 07:12:00,3.0,0.0,-100.00,NNE,30,4.0,7.0,89,-99.99,,,-99.99,,2013-02-21 13:12:00,
2013-02-21 07:32:00,3.0,1.0,-100.00,NE,45,5.0,9.0,90,-99.99,,,-99.99,,2013-02-21 13:32:00,
2013-02-21 07:42:00,3.0,1.0,-100.00,NE,45,5.0,9.0,90,-99.99,,,-99.99,,2013-02-21 13:42:00,
2013-02-21 07:52:00,3.0,1.0,-100.00,NE,45,5.0,9.0,90,-99.99,,,-99.99,,2013-02-21 13:52:00,
2013-02-21 08:02:00,3.0,1.0,-100.00,NE,45,5.0,9.0,90,-99.99,,,-99.99,,2013-02-21 14:02:00,
2013-02-21 08:11:00,3.0,1.0,-100.00,NE,45,5.0,9.0,90,-99.99,,,-99.99,,2013-02-21 14:11:00,
2013-02-21 08:32:00,5.0,3.0,-100.00,NNE,25,7.0,12.0,91,-99.99,,,-99.99,,2013-02-21 14:32:00,
2013-02-21 08:42:00,5.0,3.0,-100.00,NNE,25,7.0,12.0,91,-99.99,,,-99.99,,2013-02-21 14:42:00,
2013-02-21 08:52:00,5.0,3.0,-100.00,NNE,25,7.0,12.0,91,-99.99,,,-99.99,,2013-02-21 14:52:00,
2013-02-21 09:01:00,5.0,3.0,-100.00,NNE,25,7.0,12.0,91,-99.99,,,-99.99,,2013-02-21 15:01:00,
2013-02-21 09:12:00,5.0,3.0,-100.00,NNE,25,7.0,12.0,91,-99.99,,,-99.99,,2013-02-21 15:12:00,
2013-02-21 09:32:00,10.0,8.0,-100.00,SSE,150,1.0,6.0,91,-99.99,,,-99.99,,2013-02-21 15:32:00,
2013-02-21 09:42:00,10.0,8.0,-100.00,SSE,150,1.0,6.0,91,-99.99,,,-99.99,,2013-02-21 15:42:00,
2013-02-21 09:52:00,10.0,8.0,-100.00,SSE,150,1.0,6.0,91,-99.99,,,-99.99,,2013-02-21 15:52:00,
2013-02-21 10:01:00,10.0,8.0,-100.00,SSE,150,1.0,6.0,91,-99.99,,,-99.99,,2013-02-21 16:01:00,
2013-02-21 11:32:00,18.0,10.0,-100.00,East,100,2.0,10.0,70,-99.99,,,-99.99,,2013-02-21 17:32:00,
2013-02-21 11:42:00,18.0,10.0,-100.00,East,100,2.0,10.0,70,-99.99,,,-99.99,,2013-02-21 17:42:00,
2013-02-21 11:52:00,18.0,10.0,-100.00,East,100,2.0,10.0,70,-99.99,,,-99.99,,2013-02-21 17:52:00,
2013-02-21 12:02:00,18.0,10.0,-100.00,East,100,2.0,10.0,70,-99.99,,,-99.99,,2013-02-21 18:02:00,
2013-02-21 12:11:00,18.0,10.0,-100.00,East,100,2.0,10.0,70,-99.99,,,-99.99,,2013-02-21 18:11:00,
2013-02-21 12:12:00,21.0,8.0,-100.00,North,0,6.0,10.0,56,-99.99,,,-99.99,,2013-02-21 18:12:00,
2013-02-21 12:32:00,21.0,8.0,-100.00,North,0,6.0,10.0,56,-99.99,,,-99.99,,2013-02-21 18:32:00,
2013-02-21 12:42:00,21.0,8.0,-100.00,North,0,6.0,10.0,56,-99.99,,,-99.99,,2013-02-21 18:42:00,
2013-02-21 12:52:00,21.0,8.0,-100.00,North,0,6.0,10.0,56,-99.99,,,-99.99,,2013-02-21 18:52:00,
2013-02-21 13:01:00,21.0,8.0,-100.00,North,0,6.0,10.0,56,-99.99,,,-99.99,,2013-02-21 19:01:00,
2013-02-21 13:32:00,26.0,8.0,-100.00,NNE,30,6.0,12.0,46,-99.99,,,-99.99,,2013-02-21 19:32:00,
2013-02-21 13:42:00,26.0,8.0,-100.00,NNE,30,6.0,12.0,46,-99.99,,,-99.99,,2013-02-21 19:42:00,
2013-02-21 13:52:00,26.0,8.0,-100.00,NNE,30,6.0,12.0,46,-99.99,,,-99.99,,2013-02-21 19:52:00,
2013-02-21 14:01:00,26.0,8.0,-100.00,NNE,30,6.0,12.0,46,-99.99,,,-99.99,,2013-02-21 20:01:00,
2013-02-21 14:11:00,26.0,8.0,-100.00,NNE,30,6.0,12.0,46,-99.99,,,-99.99,,2013-02-21 20:11:00,
2013-02-21 14:32:00,30.0,10.0,-100.00,ESE,105,4.0,8.0,44,-99.99,,,-99.99,,2013-02-21 20:32:00,
2013-02-21 14:42:00,30.0,10.0,-100.00,ESE,105,4.0,8.0,44,-99.99,,,-99.99,,2013-02-21 20:42:00,
2013-02-21 14:53:00,30.0,10.0,-100.00,ESE,105,4.0,8.0,44,-99.99,,,-99.99,,2013-02-21 20:53:00,
2013-02-21 15:02:00,30.0,10.0,-100.00,ESE,105,4.0,8.0,44,-99.99,,,-99.99,,2013-02-21 21:02:00,
2013-02-21 15:11:00,30.0,10.0,-100.00,ESE,105,4.0,8.0,44,-99.99,,,-99.99,,2013-02-21 21:11:00,
2013-02-21 15:32:00,27.0,10.0,-100.00,East,100,5.0,14.0,48,-99.99,,,-99.99,,2013-02-21 21:32:00,
2013-02-21 15:42:00,27.0,10.0,-100.00,East,100,5.0,14.0,48,-99.99,,,-99.99,,2013-02-21 21:42:00,
2013-02-21 15:52:00,27.0,10.0,-100.00,East,100,5.0,14.0,48,-99.99,,,-99.99,,2013-02-21 21:52:00,
2013-02-21 16:01:00,27.0,10.0,-100.00,East,100,5.0,14.0,48,-99.99,,,-99.99,,2013-02-21 22:01:00,
2013-02-21 16:11:00,27.0,10.0,-100.00,East,100,5.0,14.0,48,-99.99,,,-99.99,,2013-02-21 22:11:00,
2013-02-21 16:32:00,27.0,11.0,-100.00,East,90,3.0,10.0,51,-99.99,,,-99.99,,2013-02-21 22:32:00,
2013-02-21 16:42:00,27.0,11.0,-100.00,East,90,3.0,10.0,51,-99.99,,,-99.99,,2013-02-21 22:42:00,
2013-02-21 16:52:00,27.0,11.0,-100.00,East,90,3.0,10.0,51,-99.99,,,-99.99,,2013-02-21 22:52:00,
2013-02-21 17:01:00,27.0,11.0,-100.00,East,90,3.0,10.0,51,-99.99,,,-99.99,,2013-02-21 23:01:00,
2013-02-21 17:11:00,27.0,11.0,-100.00,East,90,3.0,10.0,51,-99.99,,,-99.99,,2013-02-21 23:11:00,
2013-02-21 17:32:00,24.0,10.0,-100.00,ENE,75,2.0,6.0,55,-99.99,,,-99.99,,2013-02-21 23:32:00,
2013-02-21 17:42:00,24.0,10.0,-100.00,ENE,75,2.0,6.0,55,-99.99,,,-99.99,,2013-02-21 23:42:00,
2013-02-21 17:52:00,24.0,10.0,-100.00,ENE,75,2.0,6.0,55,-99.99,,,-99.99,,2013-02-21 23:52:00,
2013-02-21 18:01:00,24.0,10.0,-100.00,ENE,75,2.0,6.0,55,-99.99,,,-99.99,,2013-02-22 00:01:00,
2013-02-21 18:11:00,24.0,10.0,-100.00,ENE,75,2.0,6.0,55,-99.99,,,-99.99,,2013-02-22 00:11:00,
2013-02-21 18:32:00,22.0,12.0,-100.00,ENE,60,4.0,7.0,66,-99.99,,,-99.99,,2013-02-22 00:32:00,
2013-02-21 18:42:00,22.0,12.0,-100.00,ENE,60,4.0,7.0,66,-99.99,,,-99.99,,2013-02-22 00:42:00,
2013-02-21 18:52:00,22.0,12.0,-100.00,ENE,60,4.0,7.0,66,-99.99,,,-99.99,,2013-02-22 00:52:00,
2013-02-21 19:01:00,22.0,12.0,-100.00,ENE,60,4.0,7.0,66,-99.99,,,-99.99,,2013-02-22 01:01:00,
2013-02-21 19:11:00,20.0,13.0,-100.00,ENE,60,4.0,7.0,77,-99.99,,,-99.99,,2013-02-22 01:11:00,
2013-02-21 19:32:00,20.0,13.0,-100.00,ENE,60,4.0,7.0,77,-99.99,,,-99.99,,2013-02-22 01:32:00,
2013-02-21 19:42:00,20.0,13.0,-100.00,ENE,60,4.0,7.0,77,-99.99,,,-99.99,,2013-02-22 01:42:00,
2013-02-21 19:52:00,20.0,13.0,-100.00,ENE,60,4.0,7.0,77,-99.99,,,-99.99,,2013-02-22 01:52:00,
2013-02-21 20:02:00,20.0,13.0,-100.00,ENE,60,4.0,7.0,77,-99.99,,,-99.99,,2013-02-22 02:02:00,
2013-02-21 20:32:00,19.0,15.0,-100.00,East,85,5.0,10.0,86,-99.99,,,-99.99,,2013-02-22 02:32:00,
2013-02-21 20:42:00,19.0,15.0,-100.00,East,85,5.0,10.0,86,-99.99,,,-99.99,,2013-02-22 02:42:00,
2013-02-21 20:52:00,19.0,15.0,-100.00,East,85,5.0,10.0,86,-99.99,,,-99.99,,2013-02-22 02:52:00,
2013-02-21 21:01:00,19.0,15.0,-100.00,East,85,5.0,10.0,86,-99.99,,,-99.99,,2013-02-22 03:01:00,
2013-02-21 21:11:00,19.0,15.0,-100.00,East,85,5.0,10.0,86,-99.99,,,-99.99,,2013-02-22 03:11:00,
2013-02-21 21:32:00,20.0,17.0,-100.00,SE,130,7.0,14.0,89,-99.99,,,-99.99,,2013-02-22 03:32:00,
2013-02-21 21:42:00,20.0,17.0,-100.00,SE,130,7.0,14.0,89,-99.99,,,-99.99,,2013-02-22 03:42:00,
2013-02-21 21:52:00,20.0,17.0,-100.00,SE,130,7.0,14.0,89,-99.99,,,-99.99,,2013-02-22 03:52:00,
2013-02-21 22:01:00,20.0,17.0,-100.00,SE,130,7.0,14.0,89,-99.99,,,-99.99,,2013-02-22 04:01:00,
2013-02-21 22:12:00,18.0,17.0,-100.00,ESE,120,4.0,12.0,94,-99.99,,,-99.99,,2013-02-22 04:12:00,
2013-02-21 22:32:00,18.0,17.0,-100.00,ESE,120,4.0,12.0,94,-99.99,,,-99.99,,2013-02-22 04:32:00,
2013-02-21 22:42:00,18.0,17.0,-100.00,ESE,120,4.0,12.0,94,-99.99,,,-99.99,,2013-02-22 04:42:00,
2013-02-21 22:52:00,18.0,17.0,-100.00,ESE,120,4.0,12.0,94,-99.99,,,-99.99,,2013-02-22 04:52:00,
2013-02-21 23:01:00,18.0,17.0,-100.00,ESE,120,4.0,12.0,94,-99.99,,,-99.99,,2013-02-22 05:01:00,
2013-02-21 23:11:00,19.0,18.0,-100.00,SE,130,5.0,12.0,96,-99.99,,,-99.99,,2013-02-22 05:11:00,
2013-02-21 23:32:00,19.0,18.0,-100.00,SE,130,5.0,12.0,96,-99.99,,,-99.99,,2013-02-22 05:32:00,
2013-02-21 23:42:00,19.0,18.0,-100.00,SE,130,5.0,12.0,96,-99.99,,,-99.99,,2013-02-22 05:42:00,
2013-02-21 23:52:00,19.0,18.0,-100.00,SE,130,5.0,12.0,96,-99.99,,,-99.99,,2013-02-22 05:52:00,